SWA1243 KMCO-KIND

Flight info

Callsign SWA1243
Flight time 2h 1m
Altitude 36000
Route RDSOX1 JFRYS DCT BRUTS Q118 THRSR Q79 SWAPP DCT HAGAL GIIBS4
Aircraft B739/M-SDE2E3FGHIRWXY/LB1

Departure

Time 2026-04-26 23:56
Airport Orlando International Airport (KMCO)

Arrival

Time 2026-04-27 01:58
Airport Indianapolis International Airport (KIND)
Time Latitude Longitude Altitude Speed Heading
2026-04-26 23:18 28.43432 -81.29999 100 ft 0 kts 282°
2026-04-26 23:24 28.43432 -81.29998 100 ft 0 kts 282°
2026-04-26 23:46 28.43431 -81.29991 100 ft 4 kts 280°
2026-04-26 23:47 28.43429 -81.29961 100 ft 4 kts 261°
2026-04-26 23:47 28.43435 -81.29931 100 ft 4 kts 261°
2026-04-26 23:47 28.43438 -81.29907 98 ft 4 kts 249°
2026-04-26 23:47 28.43453 -81.29888 98 ft 4 kts 190°
2026-04-26 23:48 28.43473 -81.29887 98 ft 1 kts 179°
2026-04-26 23:48 28.43477 -81.29887 98 ft 3 kts 179°
2026-04-26 23:52 28.43472 -81.29886 98 ft 3 kts 179°
2026-04-26 23:52 28.43446 -81.29871 98 ft 6 kts 124°
2026-04-26 23:53 28.43445 -81.29822 98 ft 6 kts 58°
2026-04-26 23:53 28.43498 -81.29806 98 ft 10 kts 357°
2026-04-26 23:53 28.43550 -81.29749 100 ft 14 kts 83°
2026-04-26 23:53 28.43551 -81.29702 98 ft 0 kts 90°
2026-04-26 23:54 28.43551 -81.29692 99 ft 4 kts 90°
2026-04-26 23:54 28.43551 -81.29639 100 ft 10 kts 90°
2026-04-26 23:55 28.43541 -81.29595 99 ft 5 kts 143°
2026-04-26 23:55 28.43492 -81.29586 99 ft 12 kts 178°
2026-04-26 23:55 28.43256 -81.29583 102 ft 69 kts 179°
2026-04-26 23:55 28.42518 -81.29576 96 ft 140 kts 180°
2026-04-26 23:56 28.41402 -81.29543 123 ft 172 kts 179°
2026-04-26 23:56 28.40239 -81.29479 469 ft 162 kts 180°
2026-04-26 23:56 28.39111 -81.29538 752 ft 165 kts 184°
2026-04-26 23:56 28.37913 -81.29712 1308 ft 183 kts 198°
2026-04-26 23:57 28.36548 -81.30066 1737 ft 220 kts 194°
2026-04-26 23:57 28.34988 -81.30373 2292 ft 239 kts 189°
2026-04-26 23:57 28.33295 -81.30423 2855 ft 247 kts 183°
2026-04-26 23:57 28.31544 -81.30467 3402 ft 256 kts 188°
2026-04-26 23:58 28.29855 -81.31133 3943 ft 265 kts 217°
2026-04-26 23:58 28.28605 -81.32689 4520 ft 274 kts 245°
2026-04-26 23:58 28.28030 -81.34772 5171 ft 283 kts 261°
2026-04-26 23:58 28.27696 -81.37010 5885 ft 292 kts 262°
2026-04-26 23:59 28.27398 -81.39318 6638 ft 298 kts 263°
2026-04-26 23:59 28.27115 -81.41588 7859 ft 283 kts 264°
2026-04-26 23:59 28.26842 -81.43766 8765 ft 285 kts 266°
2026-04-26 23:59 28.27120 -81.45969 9455 ft 286 kts 298°
2026-04-27 00:00 28.28252 -81.47811 10230 ft 286 kts 309°
2026-04-27 00:00 28.29460 -81.49679 10615 ft 305 kts 305°
2026-04-27 00:00 28.30605 -81.51819 10804 ft 329 kts 300°
2026-04-27 00:00 28.31662 -81.54225 10953 ft 352 kts 295°
2026-04-27 00:01 28.32638 -81.56855 11133 ft 371 kts 292°
2026-04-27 00:01 28.33547 -81.59649 11502 ft 382 kts 290°
2026-04-27 00:01 28.34393 -81.62478 12099 ft 384 kts 289°
2026-04-27 00:01 28.35214 -81.65356 12781 ft 384 kts 288°
2026-04-27 00:02 28.36019 -81.68245 13434 ft 385 kts 288°
2026-04-27 00:02 28.36823 -81.71153 13995 ft 387 kts 288°
2026-04-27 00:02 28.37633 -81.74085 14474 ft 391 kts 288°
2026-04-27 00:02 28.38449 -81.77035 14966 ft 393 kts 288°
2026-04-27 00:03 28.39272 -81.80011 15460 ft 396 kts 288°
2026-04-27 00:03 28.40100 -81.83001 15950 ft 399 kts 288°
2026-04-27 00:03 28.40934 -81.86017 16415 ft 401 kts 288°
2026-04-27 00:03 28.41773 -81.89052 16888 ft 404 kts 288°
2026-04-27 00:04 28.42473 -81.92109 17341 ft 407 kts 281°
2026-04-27 00:04 28.42733 -81.95324 17778 ft 411 kts 272°
2026-04-27 00:04 28.42763 -81.98581 18231 ft 414 kts 271°
2026-04-27 00:04 28.42786 -82.01860 18641 ft 415 kts 271°
2026-04-27 00:05 28.42816 -82.05145 19039 ft 417 kts 271°
2026-04-27 00:05 28.42854 -82.08452 19415 ft 419 kts 271°
2026-04-27 00:05 28.42899 -82.11770 19788 ft 422 kts 271°
2026-04-27 00:05 28.42948 -82.15111 20157 ft 424 kts 271°
2026-04-27 00:06 28.42998 -82.18461 20523 ft 425 kts 271°
2026-04-27 00:06 28.43048 -82.21832 20891 ft 427 kts 271°
2026-04-27 00:06 28.43097 -82.25168 21236 ft 429 kts 271°
2026-04-27 00:06 28.43145 -82.28565 21569 ft 431 kts 271°
2026-04-27 00:07 28.43193 -82.31978 21901 ft 433 kts 271°
2026-04-27 00:07 28.43241 -82.35410 22235 ft 435 kts 271°
2026-04-27 00:07 28.43287 -82.38861 22547 ft 437 kts 271°
2026-04-27 00:07 28.43592 -82.42290 22841 ft 439 kts 285°
2026-04-27 00:08 28.44811 -82.45462 23177 ft 441 kts 301°
2026-04-27 00:08 28.46738 -82.48183 23470 ft 445 kts 314°
2026-04-27 00:08 28.49165 -82.50324 23641 ft 453 kts 328°
2026-04-27 00:08 28.52040 -82.51824 23901 ft 456 kts 335°
2026-04-27 00:09 28.54992 -82.53175 24172 ft 457 kts 336°
2026-04-27 00:09 28.57960 -82.54496 24424 ft 459 kts 336°
2026-04-27 00:09 28.60931 -82.55819 24667 ft 460 kts 336°
2026-04-27 00:09 28.63914 -82.57163 24915 ft 461 kts 336°
2026-04-27 00:10 28.66891 -82.58523 25164 ft 462 kts 335°
2026-04-27 00:10 28.69879 -82.59902 25405 ft 463 kts 335°
2026-04-27 00:10 28.72826 -82.61272 25640 ft 464 kts 335°
2026-04-27 00:10 28.75821 -82.62669 25885 ft 466 kts 335°
2026-04-27 00:11 28.78824 -82.64071 26117 ft 467 kts 335°
2026-04-27 00:11 28.81830 -82.65477 26372 ft 467 kts 335°
2026-04-27 00:11 28.84833 -82.66880 26750 ft 466 kts 335°
2026-04-27 00:11 28.87819 -82.68276 27202 ft 463 kts 335°
2026-04-27 00:12 28.90786 -82.69663 27661 ft 459 kts 335°
2026-04-27 00:12 28.93738 -82.71043 28135 ft 457 kts 335°
2026-04-27 00:12 28.96668 -82.72415 28574 ft 455 kts 335°
2026-04-27 00:12 28.99554 -82.73768 28989 ft 454 kts 335°
2026-04-27 00:13 29.02475 -82.75138 29438 ft 452 kts 335°
2026-04-27 00:13 29.05378 -82.76499 29919 ft 450 kts 335°
2026-04-27 00:13 29.08265 -82.77854 30472 ft 446 kts 335°
2026-04-27 00:13 29.11116 -82.79192 31003 ft 441 kts 335°
2026-04-27 00:14 29.13946 -82.80522 31449 ft 439 kts 335°
2026-04-27 00:14 29.16767 -82.81850 31765 ft 439 kts 335°
2026-04-27 00:14 29.19597 -82.83182 32090 ft 439 kts 335°
2026-04-27 00:14 29.22417 -82.84510 32516 ft 437 kts 335°
2026-04-27 00:15 29.25188 -82.85815 32934 ft 435 kts 335°
2026-04-27 00:15 29.27982 -82.87132 33347 ft 433 kts 335°
2026-04-27 00:15 29.30764 -82.88444 33687 ft 432 kts 335°
2026-04-27 00:15 29.33542 -82.89756 34018 ft 432 kts 335°
2026-04-27 00:16 29.36314 -82.91065 34433 ft 427 kts 334°
2026-04-27 00:16 29.39029 -82.92346 35062 ft 418 kts 334°
2026-04-27 00:16 29.41701 -82.93608 35520 ft 413 kts 334°
2026-04-27 00:16 29.44353 -82.94864 35775 ft 413 kts 334°
2026-04-27 00:17 29.47019 -82.96128 35919 ft 415 kts 334°
2026-04-27 00:17 29.49650 -82.97375 35929 ft 414 kts 334°
2026-04-27 00:17 29.54968 -82.99894 35949 ft 413 kts 334°
2026-04-27 00:18 29.60289 -83.02418 35952 ft 414 kts 334°
2026-04-27 00:18 29.65626 -83.04954 35967 ft 415 kts 334°
2026-04-27 00:19 29.70940 -83.07481 35952 ft 416 kts 334°
2026-04-27 00:19 29.76281 -83.10024 35941 ft 416 kts 334°
2026-04-27 00:20 29.81619 -83.12568 35942 ft 415 kts 334°
2026-04-27 00:20 29.86942 -83.15109 35942 ft 413 kts 334°
2026-04-27 00:21 29.92252 -83.17646 35942 ft 413 kts 334°
2026-04-27 00:21 29.97551 -83.20180 35950 ft 412 kts 333°
2026-04-27 00:22 30.02852 -83.22721 35955 ft 413 kts 333°
2026-04-27 00:22 30.08123 -83.25249 35955 ft 413 kts 333°
2026-04-27 00:23 30.13440 -83.27801 35951 ft 414 kts 333°
2026-04-27 00:23 30.18776 -83.30367 35953 ft 418 kts 333°
2026-04-27 00:24 30.24189 -83.32973 35963 ft 423 kts 333°
2026-04-27 00:24 30.29580 -83.35573 35943 ft 422 kts 333°
2026-04-27 00:25 30.34998 -83.38192 35945 ft 422 kts 333°
2026-04-27 00:25 30.40402 -83.40807 35950 ft 421 kts 333°
2026-04-27 00:26 30.45810 -83.43428 35946 ft 421 kts 333°
2026-04-27 00:26 30.51169 -83.46029 35949 ft 420 kts 333°
2026-04-27 00:27 30.56564 -83.48650 35950 ft 420 kts 333°
2026-04-27 00:27 30.61957 -83.51273 35949 ft 420 kts 333°
2026-04-27 00:28 30.67343 -83.53896 35937 ft 420 kts 333°
2026-04-27 00:28 30.72734 -83.56524 35951 ft 420 kts 333°
2026-04-27 00:29 30.78126 -83.59157 35964 ft 420 kts 333°
2026-04-27 00:29 30.83485 -83.61776 35963 ft 421 kts 332°
2026-04-27 00:30 30.88885 -83.64419 35961 ft 421 kts 332°
2026-04-27 00:30 30.94289 -83.67066 35961 ft 421 kts 332°
2026-04-27 00:31 30.99682 -83.69712 35960 ft 421 kts 332°
2026-04-27 00:31 31.05078 -83.72362 35960 ft 421 kts 332°
2026-04-27 00:32 31.10439 -83.74998 35980 ft 420 kts 332°
2026-04-27 00:32 31.15827 -83.77651 35966 ft 420 kts 332°
2026-04-27 00:33 31.21203 -83.80301 35966 ft 419 kts 332°
2026-04-27 00:33 31.26578 -83.82955 35963 ft 419 kts 332°
2026-04-27 00:34 31.31950 -83.85610 35961 ft 419 kts 332°
2026-04-27 00:34 31.37275 -83.88245 35961 ft 419 kts 332°
2026-04-27 00:35 31.42643 -83.90905 35964 ft 419 kts 332°
2026-04-27 00:35 31.48010 -83.93567 35967 ft 419 kts 332°
2026-04-27 00:36 31.53467 -83.96018 35955 ft 425 kts 340°
2026-04-27 00:36 31.59259 -83.97324 35960 ft 428 kts 343°
2026-04-27 00:37 31.65110 -83.98571 35959 ft 427 kts 343°
2026-04-27 00:37 31.70953 -83.99846 35965 ft 427 kts 343°
2026-04-27 00:38 31.76784 -84.01138 35959 ft 426 kts 343°
2026-04-27 00:38 31.82604 -84.02436 35963 ft 425 kts 343°
2026-04-27 00:39 31.88379 -84.03726 35964 ft 425 kts 343°
2026-04-27 00:39 31.94177 -84.05022 35972 ft 424 kts 343°
2026-04-27 00:40 31.99972 -84.06320 35949 ft 423 kts 343°
2026-04-27 00:40 32.05756 -84.07616 35933 ft 423 kts 343°
2026-04-27 00:41 32.11529 -84.08912 35947 ft 422 kts 343°
2026-04-27 00:41 32.17251 -84.10198 35944 ft 421 kts 343°
2026-04-27 00:42 32.23007 -84.11493 35962 ft 421 kts 344°
2026-04-27 00:42 32.28763 -84.12790 35952 ft 421 kts 343°
2026-04-27 00:43 32.34512 -84.14087 35952 ft 421 kts 344°
2026-04-27 00:43 32.40263 -84.15386 35946 ft 420 kts 343°
2026-04-27 00:44 32.45966 -84.16676 35952 ft 420 kts 343°
2026-04-27 00:44 32.51711 -84.17977 35962 ft 421 kts 344°
2026-04-27 00:45 32.57464 -84.19282 35948 ft 421 kts 344°
2026-04-27 00:45 32.63171 -84.20577 35958 ft 421 kts 344°
2026-04-27 00:46 32.68921 -84.21885 35972 ft 420 kts 344°
2026-04-27 00:46 32.74668 -84.23193 35989 ft 420 kts 344°
2026-04-27 00:47 32.80417 -84.24504 35995 ft 421 kts 344°
2026-04-27 00:47 32.86166 -84.25816 36001 ft 421 kts 344°
2026-04-27 00:48 32.91919 -84.27131 36001 ft 421 kts 344°
2026-04-27 00:48 32.97634 -84.28438 36002 ft 421 kts 344°
2026-04-27 00:49 33.03383 -84.29757 36006 ft 419 kts 344°
2026-04-27 00:49 33.09103 -84.31069 35988 ft 418 kts 344°
2026-04-27 00:50 33.17664 -84.33035 36011 ft 417 kts 344°
2026-04-27 00:51 33.23363 -84.34348 36024 ft 417 kts 344°
2026-04-27 00:51 33.29069 -84.35663 36033 ft 418 kts 343°
2026-04-27 00:52 33.34737 -84.36972 36040 ft 418 kts 344°
2026-04-27 00:52 33.40026 -84.38194 35989 ft 418 kts 343°
2026-04-27 00:53 33.45485 -84.39458 35984 ft 419 kts 344°
2026-04-27 00:53 33.51223 -84.40788 35993 ft 419 kts 343°
2026-04-27 00:54 33.56953 -84.42117 36012 ft 420 kts 344°
2026-04-27 00:54 33.62656 -84.43442 35998 ft 421 kts 344°
2026-04-27 00:55 33.68417 -84.44726 35991 ft 421 kts 344°
2026-04-27 00:55 33.74185 -84.45975 35987 ft 422 kts 344°
2026-04-27 00:56 33.79959 -84.47233 35979 ft 421 kts 344°
2026-04-27 00:56 33.85722 -84.48496 35979 ft 421 kts 345°
2026-04-27 00:57 33.91454 -84.49756 35978 ft 421 kts 345°
2026-04-27 00:57 33.97209 -84.51023 35972 ft 420 kts 345°
2026-04-27 00:58 34.02966 -84.52292 36027 ft 420 kts 345°
2026-04-27 00:58 34.08682 -84.53711 36029 ft 419 kts 343°
2026-04-27 00:59 34.14329 -84.55208 36032 ft 418 kts 343°
2026-04-27 00:59 34.20003 -84.56702 36020 ft 417 kts 343°
2026-04-27 01:00 34.25679 -84.58182 36014 ft 417 kts 343°
2026-04-27 01:00 34.31348 -84.59658 36019 ft 416 kts 343°
2026-04-27 01:01 34.37007 -84.61133 36036 ft 416 kts 343°
2026-04-27 01:01 34.42619 -84.62598 36012 ft 415 kts 343°
2026-04-27 01:02 34.48265 -84.64075 35996 ft 415 kts 343°
2026-04-27 01:02 34.53906 -84.65552 35997 ft 414 kts 343°
2026-04-27 01:03 34.59539 -84.67021 35990 ft 414 kts 343°
2026-04-27 01:03 34.65181 -84.68424 36006 ft 414 kts 343°
2026-04-27 01:04 34.70784 -84.69801 36016 ft 414 kts 343°
2026-04-27 01:04 34.76424 -84.71199 36001 ft 413 kts 343°
2026-04-27 01:05 34.82062 -84.72602 36007 ft 414 kts 343°
2026-04-27 01:05 34.87701 -84.74004 36003 ft 414 kts 343°
2026-04-27 01:06 34.93312 -84.75404 35999 ft 414 kts 343°
2026-04-27 01:06 34.98959 -84.76815 35998 ft 414 kts 343°
2026-04-27 01:07 35.04604 -84.78228 35993 ft 414 kts 343°
2026-04-27 01:07 35.10244 -84.79642 35988 ft 414 kts 343°
2026-04-27 01:08 35.15892 -84.81060 36009 ft 415 kts 343°
2026-04-27 01:08 35.21510 -84.82472 36002 ft 415 kts 343°
2026-04-27 01:09 35.27170 -84.83897 35999 ft 415 kts 343°
2026-04-27 01:09 35.32835 -84.85325 35996 ft 416 kts 343°
2026-04-27 01:10 35.38494 -84.86753 35997 ft 415 kts 343°
2026-04-27 01:10 35.44162 -84.88188 36003 ft 416 kts 344°
2026-04-27 01:11 35.49842 -84.89625 36001 ft 417 kts 344°
2026-04-27 01:11 35.55486 -84.91056 36004 ft 417 kts 344°
2026-04-27 01:12 35.61174 -84.92499 36004 ft 417 kts 344°
2026-04-27 01:12 35.66870 -84.93942 36018 ft 418 kts 344°
2026-04-27 01:13 35.72562 -84.95384 36015 ft 418 kts 344°
2026-04-27 01:13 35.78265 -84.96833 35993 ft 418 kts 344°
2026-04-27 01:14 35.83965 -84.98282 36024 ft 418 kts 344°
2026-04-27 01:14 35.89637 -84.99728 36059 ft 419 kts 344°
2026-04-27 01:15 35.95338 -85.01182 36065 ft 419 kts 344°
2026-04-27 01:15 36.01049 -85.02642 36055 ft 419 kts 344°
2026-04-27 01:16 36.06761 -85.04104 36051 ft 419 kts 344°
2026-04-27 01:16 36.12468 -85.05566 36039 ft 419 kts 344°
2026-04-27 01:17 36.18135 -85.07021 36044 ft 419 kts 344°
2026-04-27 01:17 36.23848 -85.08489 36031 ft 419 kts 344°
2026-04-27 01:18 36.29557 -85.09959 36025 ft 419 kts 344°
2026-04-27 01:18 36.35270 -85.11418 36025 ft 420 kts 345°
2026-04-27 01:19 36.40980 -85.12755 36033 ft 420 kts 346°
2026-04-27 01:19 36.46725 -85.14073 36018 ft 420 kts 346°
2026-04-27 01:20 36.52465 -85.15402 36023 ft 419 kts 346°
2026-04-27 01:20 36.58195 -85.16742 36024 ft 419 kts 346°
2026-04-27 01:21 36.63881 -85.18076 36024 ft 418 kts 346°
2026-04-27 01:21 36.69586 -85.19418 36036 ft 417 kts 346°
2026-04-27 01:22 36.75280 -85.20760 36028 ft 416 kts 346°
2026-04-27 01:22 36.80958 -85.22100 36027 ft 415 kts 346°
2026-04-27 01:23 36.86590 -85.23430 36031 ft 414 kts 346°
2026-04-27 01:23 36.92249 -85.24770 36047 ft 414 kts 346°
2026-04-27 01:24 36.97898 -85.26109 36032 ft 413 kts 346°
2026-04-27 01:24 37.03544 -85.27449 36023 ft 413 kts 346°
2026-04-27 01:25 37.09187 -85.28790 36028 ft 412 kts 346°
2026-04-27 01:25 37.14786 -85.30123 36041 ft 412 kts 346°
2026-04-27 01:26 37.20420 -85.31467 36025 ft 412 kts 346°
2026-04-27 01:26 37.26048 -85.32811 36029 ft 411 kts 346°
2026-04-27 01:27 37.31673 -85.34156 36027 ft 411 kts 346°
2026-04-27 01:27 37.37253 -85.35493 36030 ft 411 kts 346°
2026-04-27 01:28 37.42865 -85.36839 36034 ft 411 kts 346°
2026-04-27 01:28 37.48476 -85.38187 36038 ft 410 kts 346°
2026-04-27 01:29 37.54082 -85.39536 36039 ft 410 kts 346°
2026-04-27 01:29 37.59705 -85.40892 35732 ft 414 kts 346°
2026-04-27 01:29 37.62523 -85.41572 35503 ft 412 kts 346°
2026-04-27 01:30 37.65336 -85.42250 35269 ft 411 kts 346°
2026-04-27 01:30 37.68103 -85.42918 35003 ft 412 kts 346°
2026-04-27 01:30 37.70933 -85.43603 34785 ft 415 kts 346°
2026-04-27 01:30 37.73746 -85.44284 34477 ft 406 kts 346°
2026-04-27 01:31 37.76482 -85.44943 33867 ft 400 kts 347°
2026-04-27 01:31 37.79238 -85.45612 32694 ft 409 kts 347°
2026-04-27 01:31 37.82021 -85.46288 32264 ft 403 kts 347°
2026-04-27 01:31 37.84775 -85.46956 31645 ft 402 kts 346°
2026-04-27 01:32 37.87522 -85.47625 31200 ft 415 kts 346°
2026-04-27 01:32 37.90423 -85.48335 30737 ft 433 kts 347°
2026-04-27 01:32 37.93427 -85.49070 30264 ft 446 kts 347°
2026-04-27 01:32 37.96502 -85.49819 29735 ft 452 kts 347°
2026-04-27 01:33 37.99592 -85.50571 29171 ft 452 kts 347°
2026-04-27 01:33 38.02684 -85.51322 28630 ft 453 kts 347°
2026-04-27 01:33 38.05782 -85.52076 28103 ft 454 kts 347°
2026-04-27 01:33 38.08887 -85.52834 27641 ft 454 kts 347°
2026-04-27 01:34 38.11987 -85.53591 27183 ft 454 kts 347°
2026-04-27 01:34 38.15097 -85.54353 26730 ft 458 kts 347°
2026-04-27 01:34 38.18250 -85.55126 26292 ft 464 kts 347°
2026-04-27 01:34 38.21397 -85.55899 25862 ft 468 kts 347°
2026-04-27 01:35 38.24584 -85.56681 25416 ft 466 kts 347°
2026-04-27 01:35 38.27764 -85.57461 24986 ft 464 kts 347°
2026-04-27 01:35 38.30922 -85.58236 24616 ft 461 kts 347°
2026-04-27 01:35 38.34072 -85.59011 24243 ft 460 kts 347°
2026-04-27 01:36 38.37201 -85.59782 23885 ft 458 kts 347°
2026-04-27 01:36 38.40333 -85.60555 23495 ft 457 kts 347°
2026-04-27 01:36 38.43452 -85.61325 23067 ft 457 kts 347°
2026-04-27 01:36 38.46569 -85.62095 22642 ft 456 kts 347°
2026-04-27 01:37 38.49680 -85.62865 22219 ft 455 kts 347°
2026-04-27 01:37 38.52736 -85.63621 21816 ft 454 kts 347°
2026-04-27 01:37 38.55824 -85.64385 21443 ft 446 kts 348°
2026-04-27 01:37 38.58834 -85.65083 21112 ft 435 kts 350°
2026-04-27 01:38 38.61820 -85.65582 20787 ft 431 kts 352°
2026-04-27 01:38 38.64798 -85.65989 20473 ft 431 kts 352°
2026-04-27 01:38 38.67780 -85.66377 20192 ft 430 kts 353°
2026-04-27 01:38 38.70760 -85.66773 19880 ft 430 kts 353°
2026-04-27 01:39 38.73724 -85.67183 19571 ft 429 kts 352°
2026-04-27 01:39 38.76649 -85.67602 19267 ft 428 kts 352°
2026-04-27 01:39 38.79604 -85.68034 18963 ft 427 kts 352°
2026-04-27 01:39 38.82553 -85.68470 18660 ft 427 kts 352°
2026-04-27 01:40 38.85502 -85.68907 18362 ft 426 kts 352°
2026-04-27 01:40 38.88446 -85.69343 18015 ft 425 kts 352°
2026-04-27 01:40 38.91384 -85.69779 17666 ft 424 kts 352°
2026-04-27 01:40 38.94309 -85.70213 17326 ft 423 kts 352°
2026-04-27 01:41 38.97239 -85.70648 16494 ft 426 kts 352°
2026-04-27 01:41 39.00165 -85.71081 15745 ft 422 kts 352°
2026-04-27 01:41 39.03012 -85.71517 15307 ft 406 kts 352°
2026-04-27 01:41 39.05722 -85.71986 15146 ft 381 kts 351°
2026-04-27 01:42 39.08269 -85.72446 14988 ft 359 kts 351°
2026-04-27 01:42 39.10673 -85.72875 14862 ft 340 kts 351°
2026-04-27 01:42 39.12955 -85.73278 14739 ft 322 kts 351°
2026-04-27 01:42 39.15117 -85.73672 14626 ft 305 kts 347°
2026-04-27 01:43 39.17054 -85.74533 14511 ft 286 kts 332°
2026-04-27 01:43 39.18227 -85.75246 14432 ft 277 kts 332°
2026-04-27 01:43 39.19958 -85.76295 14104 ft 273 kts 333°
2026-04-27 01:43 39.22266 -85.77659 13579 ft 277 kts 333°
2026-04-27 01:44 39.24008 -85.78669 13304 ft 272 kts 334°
2026-04-27 01:44 39.25732 -85.79663 12854 ft 274 kts 334°
2026-04-27 01:44 39.27534 -85.80704 12124 ft 292 kts 334°
2026-04-27 01:44 39.28768 -85.81415 11847 ft 294 kts 334°
2026-04-27 01:45 39.30630 -85.82487 11554 ft 292 kts 334°
2026-04-27 01:45 39.32482 -85.83554 11288 ft 290 kts 333°
2026-04-27 01:45 39.34165 -85.84935 10985 ft 286 kts 316°
2026-04-27 01:45 39.35631 -85.86641 10803 ft 279 kts 315°
2026-04-27 01:46 39.37039 -85.88301 10739 ft 269 kts 315°
2026-04-27 01:46 39.38839 -85.90397 10590 ft 259 kts 315°
2026-04-27 01:46 39.39743 -85.91440 10437 ft 257 kts 315°
2026-04-27 01:46 39.41078 -85.92969 10123 ft 259 kts 316°
2026-04-27 01:47 39.42432 -85.94514 10054 ft 267 kts 316°
2026-04-27 01:47 39.43860 -85.96142 10038 ft 279 kts 316°
2026-04-27 01:47 39.45337 -85.97823 10036 ft 284 kts 316°
2026-04-27 01:47 39.46623 -85.99723 9995 ft 278 kts 295°
2026-04-27 01:48 39.47361 -86.01990 9816 ft 271 kts 286°
2026-04-27 01:48 39.47977 -86.04296 9460 ft 272 kts 285°
2026-04-27 01:48 39.48579 -86.06622 9111 ft 273 kts 285°
2026-04-27 01:48 39.49174 -86.08945 8801 ft 270 kts 285°
2026-04-27 01:49 39.49764 -86.11261 8425 ft 272 kts 285°
2026-04-27 01:49 39.50355 -86.13586 8117 ft 271 kts 285°
2026-04-27 01:49 39.50934 -86.15867 7859 ft 270 kts 285°
2026-04-27 01:49 39.51518 -86.18171 7591 ft 269 kts 285°
2026-04-27 01:50 39.51850 -86.20517 7280 ft 263 kts 265°
2026-04-27 01:50 39.51816 -86.22870 7032 ft 261 kts 265°
2026-04-27 01:50 39.51783 -86.25219 6682 ft 261 kts 265°
2026-04-27 01:50 39.51753 -86.27570 6374 ft 261 kts 265°
2026-04-27 01:51 39.51724 -86.29863 6247 ft 247 kts 265°
2026-04-27 01:51 39.51703 -86.32044 6057 ft 240 kts 265°
2026-04-27 01:51 39.51685 -86.34190 5846 ft 238 kts 265°
2026-04-27 01:51 39.51662 -86.36297 5581 ft 237 kts 265°
2026-04-27 01:52 39.51707 -86.38430 5306 ft 239 kts 279°
2026-04-27 01:52 39.52437 -86.40368 5007 ft 244 kts 310°
2026-04-27 01:52 39.53606 -86.41941 4824 ft 240 kts 315°
2026-04-27 01:52 39.54773 -86.43426 4750 ft 230 kts 315°
2026-04-27 01:53 39.55970 -86.44783 4471 ft 231 kts 326°
2026-04-27 01:53 39.57449 -86.45602 3975 ft 235 kts 353°
2026-04-27 01:53 39.58953 -86.45321 3759 ft 206 kts 39°
2026-04-27 01:53 39.59911 -86.44149 3624 ft 182 kts 53°
2026-04-27 01:54 39.60751 -86.42921 3237 ft 179 kts 55°
2026-04-27 01:54 39.61550 -86.41754 3072 ft 163 kts 55°
2026-04-27 01:54 39.62277 -86.40717 2874 ft 152 kts 54°
2026-04-27 01:54 39.62986 -86.39709 2550 ft 149 kts 56°
2026-04-27 01:55 39.63704 -86.38762 2310 ft 146 kts 54°
2026-04-27 01:55 39.64415 -86.37822 2069 ft 146 kts 53°
2026-04-27 01:55 39.65122 -86.36876 1727 ft 145 kts 53°
2026-04-27 01:55 39.65791 -86.35983 1673 ft 140 kts 51°
2026-04-27 01:56 39.67179 -86.34165 1551 ft 144 kts 54°
2026-04-27 01:56 39.67861 -86.33193 1279 ft 146 kts 50°
2026-04-27 01:56 39.68556 -86.32306 1209 ft 144 kts 47°
2026-04-27 01:57 39.69309 -86.31395 1075 ft 149 kts 48°
2026-04-27 01:57 39.70027 -86.30450 832 ft 146 kts 50°
2026-04-27 01:57 39.70725 -86.29544 790 ft 139 kts 47°
2026-04-27 01:57 39.71362 -86.28742 789 ft 91 kts 44°
2026-04-27 01:58 39.71619 -86.28421 783 ft 24 kts 34°
2026-04-27 01:58 39.71731 -86.28431 781 ft 10 kts 304°
2026-04-27 01:58 39.71757 -86.28479 782 ft 8 kts 307°
2026-04-27 01:58 39.71745 -86.28552 783 ft 11 kts 221°
2026-04-27 01:59 39.71676 -86.28636 785 ft 15 kts 226°
2026-04-27 01:59 39.71605 -86.28727 785 ft 7 kts 224°
2026-04-27 01:59 39.71588 -86.28810 785 ft 14 kts 291°
2026-04-27 01:59 39.71673 -86.28926 784 ft 16 kts 314°
2026-04-27 02:00 39.71768 -86.29055 785 ft 23 kts 313°
2026-04-27 02:00 39.71819 -86.29124 787 ft 2 kts 316°
2026-04-27 02:00 39.71854 -86.29171 787 ft 12 kts 315°
2026-04-27 02:00 39.71874 -86.29295 788 ft 20 kts 234°
2026-04-27 02:01 39.71847 -86.29405 788 ft 13 kts 237°
2026-04-27 02:01 39.71774 -86.29502 788 ft 18 kts 220°
2026-04-27 02:01 39.71710 -86.29632 788 ft 16 kts 276°
2026-04-27 02:01 39.71724 -86.29674 789 ft 3 kts 294°
2026-04-27 02:02 39.71724 -86.29676 789 ft 0 kts 293°